This demonstration page uses our WeatherBlox Daily Observations layout. Learn more.

Left ArrowRight Arrow

34.16533, -84.80231

Hourly Observations for July 18, 2020

Temp ( °F °C ) Dew Point ( °F °C ) Humidity (%) Winds ( mph kmh ) Pressure ( in mb ) Visibility ( mi km ) Precip ( " mm )
12:53 am 00:53 Mostly Cloudy 78 25.6 69 20.6 74 74 Calm 30.11 1020 10 16 0.00 0.00
1:53 am 01:53 Mostly Cloudy 77 25 70 21.1 79 79 Calm 30.10 1019 10 16 0.00 0.00
2:53 am 02:53 Mostly Clear 76 24.4 70 21.1 82 82 Calm 30.09 1019 10 16 0.00 0.00
3:53 am 03:53 Cloudy 79 26.1 70 21.1 74 74 Calm 30.09 1019 10 16 0.00 0.00
4:53 am 04:53 Cloudy 78 25.6 71 21.7 79 79 Calm 30.08 1019 10 16 0.00 0.00
5:53 am 05:53 Mostly Cloudy 76 24.4 71 21.7 85 85 Calm 30.09 1019 10 16 0.00 0.00
6:53 am 06:53 Sunny 75 23.9 70 21.1 84 84 Calm 30.09 1019 10 16 0.00 0.00
7:53 am 07:53 Sunny 77 25 70 21.1 79 79 Calm 30.11 1020 10 16 0.00 0.00
8:53 am 08:53 Sunny 83 28.3 71 21.7 67 67 Calm 30.13 1020 10 16 0.00 0.00
9:53 am 09:53 Partly Cloudy 85 29.4 72 22.2 65 65 Calm 30.14 1021 10 16 0.00 0.00
10:53 am 10:53 Mostly Sunny 88 31.1 71 21.7 57 57 Calm 30.14 1021 10 16 0.00 0.00
11:53 am 11:53 Sunny 91 32.8 72 22.2 54 54 Calm 30.13 1020 10 16 0.00 0.00
12:53 pm 12:53 Sunny 92 33.3 71 21.7 51 51 S 3 6 30.11 1020 10 16 0.00 0.00
1:53 pm 13:53 Mostly Cloudy 92 33.3 70 21.1 49 49 Calm 30.09 1019 10 16 0.00 0.00
2:53 pm 14:53 Cloudy 92 33.3 72 22.2 52 52 VRB 7 11 30.09 1019 10 16 0.00 0.00
3:12 pm 15:12 Cloudy with Rain 80 26.7 72 22.2 76 76 VRB 7 11 30.08 1019 2 3 0.07 1.78
3:19 pm 15:19 Cloudy with Nearby Thunderstorms 79 26.1 73 22.8 82 82 VRB 3 6 30.10 1019 5 8 0.07 1.78
3:53 pm 15:53 Mostly Cloudy with Nearby Thunderstorms 82 27.8 76 24.4 82 82 Calm 30.07 1018 10 16 0.09 2.29
4:10 pm 16:10 Mostly Cloudy 85 29.4 75 23.9 72 72 Calm 30.08 1019 10 16 0.00 0.00
4:53 pm 16:53 Sunny 87 30.6 73 22.8 63 63 NE 9 15 30.05 1018 10 16 0.00 0.00
5:53 pm 17:53 Sunny 83 28.3 75 23.9 77 77 Calm 30.05 1018 10 16 0.00 0.00
6:53 pm 18:53 Sunny 81 27.2 72 22.2 74 74 S 5 7 30.05 1018 10 16 0.00 0.00
7:53 pm 19:53 Partly Cloudy 80 26.7 71 21.7 74 74 Calm 30.06 1018 10 16 0.00 0.00
8:53 pm 20:53 Clear 78 25.6 73 22.8 85 85 Calm 30.05 1018 10 16 0.00 0.00
9:53 pm 21:53 Mostly Clear 76 24.4 73 22.8 91 91 SSE 3 6 30.07 1018 10 16 0.00 0.00
10:53 pm 22:53 Clear 78 25.6 72 22.2 82 82 Calm 30.09 1019 10 16 0.00 0.00
11:53 pm 23:53 Clear 75 23.9 72 22.2 90 90 Calm 30.07 1018 10 16 0.00 0.00

Powered by AerisWeather